{"data":{"norad_id":44337,"intl_designator":"2019-035A","name":"BEIDOU-3 IGSO-2 (C39)","alt_names":[],"object_type":"PAYLOAD","status":"ACTIVE","operator":null,"country":"PRC","launch_date":"2019-06-24","launch_site_code":"XICLF","launch_vehicle":null,"mission":null,"orbit_class":"UNKNOWN","rcs_meters":null,"size_class":null,"mass_kg":null,"dimensions":null,"purposes":["comms","nav"],"wikipedia_slug":null,"has_3d_model":false,"image_url":null,"decayed_at":null,"tle_current":{"epoch":"2026-05-19T15:14:57.732288Z","epoch_age_seconds":548665,"freshness":"STALE","line1":"1 44337U 19035A   26139.63539042 -.00000079  00000+0  00000+0 0  9997","line2":"2 44337  55.2397 159.1126 0039530 216.4700 210.4277  1.00275192 25387","mean_motion":1.00275192,"eccentricity":0.003953,"inclination_deg":55.2397,"raan_deg":159.1126,"arg_perigee_deg":216.47,"mean_anomaly_deg":210.4277,"bstar":0,"rev_number":2538,"period_min":1436.0481104838,"perigee_km":35618.966472439,"apogee_km":35952.313292472,"semimajor_km":42163.776882456,"source":"CELESTRAK","updated_at":"2026-05-25T13:38:24.221819Z"}}}